datetime,storage
2008-09-30,841.26
2008-10-01,851.320313
2008-10-02,841.339844
2008-10-03,861.799805
2008-10-04,830.860352
2008-10-05,866.790039
2008-10-06,820.879883
2008-10-07,815.889648
2008-10-08,825.870117
2008-10-09,789.94043
2008-10-10,789.94043
2008-10-11,789.94043
2008-10-12,769.480469
2008-10-13,795.429688
2008-10-14,789.94043
2008-10-15,784.950195
2008-10-16,769.480469
2008-10-17,759.5
2008-10-18,789.94043
2008-10-19,784.950195
2008-10-20,769.480469
2008-10-21,779.959961
2008-10-22,764.490234
2008-10-23,784.950195
2008-10-24,769.480469
2008-10-25,784.950195
2008-10-26,769.480469
2008-10-27,810.400391
2008-10-28,830.860352
2008-10-29,810.400391
2008-10-30,789.94043
2008-10-31,820.879883
2008-11-01,825.870117
2008-11-02,830.860352
2008-11-03,836.349609
2008-11-04,836.349609
2008-11-05,841.339844
2008-11-06,825.870117
2008-11-07,815.889648
2008-11-08,815.889648
2008-11-09,815.889648
2008-11-10,825.870117
2008-11-11,830.860352
2008-11-12,830.860352
2008-11-13,841.339844
2008-11-14,830.860352
2008-11-15,820.879883
2008-11-16,820.879883
2008-11-17,820.879883
2008-11-18,815.889648
2008-11-19,774.969727
2008-11-20,764.490234
2008-11-21,744.030273
2008-11-22,820.879883
2008-11-23,836.349609
2008-11-24,830.860352
2008-11-25,815.889648
2008-11-26,830.860352
2008-11-27,795.429688
2008-11-28,810.400391
2008-11-29,836.349609
2008-11-30,800.419922
2008-12-01,805.410156
2008-12-02,815.889648
2008-12-03,830.860352
2008-12-04,774.969727
2008-12-05,820.879883
2008-12-06,815.889648
2008-12-07,810.400391
2008-12-08,805.410156
2008-12-09,754.509766
2008-12-10,810.400391
2008-12-11,764.490234
2008-12-12,805.410156
2008-12-13,800.419922
2008-12-14,805.410156
2008-12-15,784.950195
2008-12-16,759.5
2008-12-17,769.480469
2008-12-18,759.5
2008-12-19,764.490234
2008-12-20,774.969727
2008-12-21,779.959961
2008-12-22,784.950195
2008-12-23,784.950195
2008-12-24,784.950195
2008-12-25,769.480469
2008-12-26,759.5
2008-12-27,774.969727
2008-12-28,779.959961
2008-12-29,774.969727
2008-12-30,774.969727
2008-12-31,784.950195
2009-01-01,779.959961
2009-01-02,784.950195
2009-01-03,784.950195
2009-01-04,774.969727
2009-01-05,784.950195
2009-01-06,779.959961
2009-01-07,779.959961
2009-01-08,784.950195
2009-01-09,774.969727
2009-01-10,784.950195
2009-01-11,779.959961
2009-01-12,779.959961
2009-01-13,789.94043
2009-01-14,764.490234
2009-01-15,769.480469
2009-01-16,779.959961
2009-01-17,779.959961
2009-01-18,795.429688
2009-01-19,784.950195
2009-01-20,764.490234
2009-01-21,800.419922
2009-01-22,784.950195
2009-01-23,805.410156
2009-01-24,784.950195
2009-01-25,784.950195
2009-01-26,784.950195
2009-01-27,789.94043
2009-01-28,789.94043
2009-01-29,789.94043
2009-01-30,784.950195
2009-01-31,784.950195
2009-02-01,779.959961
2009-02-02,784.950195
2009-02-03,805.410156
2009-02-04,795.429688
2009-02-05,784.950195
2009-02-06,789.94043
2009-02-07,784.950195
2009-02-08,789.94043
2009-02-09,800.419922
2009-02-10,774.969727
2009-02-11,789.94043
2009-02-12,789.94043
2009-02-13,784.950195
2009-02-14,795.429688
2009-02-15,779.959961
2009-02-16,779.959961
2009-02-17,784.950195
2009-02-18,830.860352
2009-02-19,769.480469
2009-02-20,789.94043
2009-02-21,789.94043
2009-02-22,795.429688
2009-02-23,784.950195
2009-02-24,774.969727
2009-02-25,774.969727
2009-02-26,805.410156
2009-02-27,784.950195
2009-02-28,779.959961
2009-03-01,784.950195
2009-03-02,779.959961
2009-03-03,779.959961
2009-03-04,789.94043
2009-03-05,784.950195
2009-03-06,769.480469
2009-03-07,789.94043
2009-03-08,784.950195
2009-03-09,784.950195
2009-03-10,769.480469
2009-03-11,784.950195
2009-03-12,779.959961
2009-03-13,784.950195
2009-03-14,784.950195
2009-03-15,784.950195
2009-03-16,774.969727
2009-03-17,769.480469
2009-03-18,779.959961
2009-03-19,779.959961
2009-03-20,800.419922
2009-03-21,789.94043
2009-03-22,789.94043
2009-03-23,800.419922
2009-03-24,795.429688
2009-03-25,805.410156
2009-03-26,805.410156
2009-03-27,795.429688
2009-03-28,789.94043
2009-03-29,789.94043
2009-03-30,784.950195
2009-03-31,805.410156
2009-04-01,800.419922
2009-04-02,789.94043
2009-04-03,836.349609
2009-04-04,836.349609
2009-04-05,836.349609
2009-04-06,836.349609
2009-04-07,820.879883
2009-04-08,810.400391
2009-04-09,830.860352
2009-04-10,805.410156
2009-04-11,810.400391
2009-04-12,836.349609
2009-04-13,815.889648
2009-04-14,810.400391
2009-04-15,810.400391
2009-04-16,825.870117
2009-04-17,825.870117
2009-04-18,795.429688
2009-04-19,784.950195
2009-04-20,800.419922
2009-04-21,810.400391
2009-04-22,815.889648
2009-04-23,820.879883
2009-04-24,800.419922
2009-04-25,820.879883
2009-04-26,789.94043
2009-04-27,789.94043
2009-04-28,789.94043
2009-04-29,800.419922
2009-04-30,789.94043
2009-05-01,784.950195
2009-05-02,739.040039
2009-05-03,739.040039
2009-05-04,723.570313
2009-05-05,723.570313
2009-05-06,734.049805
2009-05-07,759.5
2009-05-08,754.509766
2009-05-09,734.049805
2009-05-10,739.040039
2009-05-11,734.049805
2009-05-12,810.400391
2009-05-13,769.480469
2009-05-14,784.950195
2009-05-15,784.950195
2009-05-16,779.959961
2009-05-17,769.480469
2009-05-18,836.349609
2009-05-19,820.879883
2009-05-20,779.959961
2009-05-21,749.519531
2009-05-22,754.509766
2009-05-23,815.889648
2009-05-24,774.969727
2009-05-25,789.94043
2009-05-26,759.5
2009-05-27,800.419922
2009-05-28,754.509766
2009-05-29,805.410156
2009-05-30,846.330078
2009-05-31,805.410156
2009-06-01,795.429688
2009-06-02,754.509766
2009-06-03,
2009-06-04,
2009-06-05,
2009-06-06,
2009-06-07,
2009-06-08,
2009-06-09,
2009-06-10,
2009-06-11,
2009-06-12,
2009-06-13,
2009-06-14,
2009-06-15,
2009-06-16,
2009-06-17,
2009-06-18,
2009-06-19,
2009-06-20,
2009-06-21,
2009-06-22,
2009-06-23,
2009-06-24,
2009-06-25,
2009-06-26,
2009-06-27,
2009-06-28,
2009-06-29,
2009-06-30,
2009-07-01,
2009-07-02,
2009-07-03,
2009-07-04,
2009-07-05,
2009-07-06,734.049805
2009-07-07,
2009-07-08,
2009-07-09,
2009-07-10,
2009-07-11,
2009-07-12,
2009-07-13,
2009-07-14,
2009-07-15,
2009-07-16,
2009-07-17,
2009-07-18,
2009-07-19,
2009-07-20,
2009-07-21,
2009-07-22,
2009-07-23,
2009-07-24,
2009-07-25,
2009-07-26,
2009-07-27,
2009-07-28,
2009-07-29,
2009-07-30,
2009-07-31,
2009-08-01,
2009-08-02,
2009-08-03,
2009-08-04,
2009-08-05,
2009-08-06,
2009-08-07,
2009-08-08,
2009-08-09,
2009-08-10,
2009-08-11,795.429688
2009-08-12,
2009-08-13,
2009-08-14,
2009-08-15,
2009-08-16,
2009-08-17,
2009-08-18,
2009-08-19,
2009-08-20,
2009-08-21,
2009-08-22,
2009-08-23,
2009-08-24,
2009-08-25,
2009-08-26,
2009-08-27,
2009-08-28,
2009-08-29,
2009-08-30,
2009-08-31,
2009-09-01,
2009-09-02,
2009-09-03,
2009-09-04,
2009-09-05,
2009-09-06,
2009-09-07,
2009-09-08,
2009-09-09,
2009-09-10,
2009-09-11,
2009-09-12,
2009-09-13,
2009-09-14,
2009-09-15,
2009-09-16,
2009-09-17,
2009-09-18,
2009-09-19,
2009-09-20,
2009-09-21,
2009-09-22,
2009-09-23,
2009-09-24,
2009-09-25,
2009-09-26,
2009-09-27,
2009-09-28,
2009-09-29,
2009-09-30,
2009-10-01,
2009-10-02,
2009-10-03,
2009-10-04,
2009-10-05,
2009-10-06,
2009-10-07,
2009-10-08,
2009-10-09,
2009-10-10,
2009-10-11,
2009-10-12,
2009-10-13,
2009-10-14,
2009-10-15,
2009-10-16,
2009-10-17,
2009-10-18,
2009-10-19,
2009-10-20,
2009-10-21,
2009-10-22,
2009-10-23,
2009-10-24,
2009-10-25,
2009-10-26,
2009-10-27,
2009-10-28,
2009-10-29,
2009-10-30,
2009-10-31,
2009-11-01,
2009-11-02,
2009-11-03,
2009-11-04,
2009-11-05,
2009-11-06,
2009-11-07,
2009-11-08,
2009-11-09,
2009-11-10,
2009-11-11,
2009-11-12,
2009-11-13,
2009-11-14,
2009-11-15,
2009-11-16,
2009-11-17,
2009-11-18,
2009-11-19,
2009-11-20,
2009-11-21,
2009-11-22,
2009-11-23,
2009-11-24,
2009-11-25,
2009-11-26,
2009-11-27,
2009-11-28,
2009-11-29,
2009-11-30,
2009-12-01,
2009-12-02,
2009-12-03,
2009-12-04,
2009-12-05,
2009-12-06,
2009-12-07,
2009-12-08,
2009-12-09,
2009-12-10,
2009-12-11,
2009-12-12,
2009-12-13,
2009-12-14,
2009-12-15,
2009-12-16,
2009-12-17,
2009-12-18,
2009-12-19,
2009-12-20,
2009-12-21,
2009-12-22,
2009-12-23,
2009-12-24,
2009-12-25,
2009-12-26,
2009-12-27,
2009-12-28,
2009-12-29,
2009-12-30,
2009-12-31,
2010-01-01,815.889648
2010-01-02,836.349609
2010-01-03,830.860352
2010-01-04,820.879883
2010-01-05,810.400391
2010-01-06,810.400391
2010-01-07,820.879883
2010-01-08,820.879883
2010-01-09,825.870117
2010-01-10,810.400391
2010-01-11,851.320313
2010-01-12,836.349609
2010-01-13,836.349609
2010-01-14,825.870117
2010-01-15,846.330078
2010-01-16,820.879883
2010-01-17,800.419922
2010-01-18,851.320313
2010-01-19,836.349609
2010-01-20,820.879883
2010-01-21,795.429688
2010-01-22,820.879883
2010-01-23,815.889648
2010-01-24,825.870117
2010-01-25,830.860352
2010-01-26,784.950195
2010-01-27,815.889648
2010-01-28,820.879883
2010-01-29,815.889648
2010-01-30,805.410156
2010-01-31,830.860352
2010-02-01,820.879883
2010-02-02,825.870117
2010-02-03,820.879883
2010-02-04,825.870117
2010-02-05,825.870117
2010-02-06,846.330078
2010-02-07,836.349609
2010-02-08,815.889648
2010-02-09,820.879883
2010-02-10,820.879883
2010-02-11,820.879883
2010-02-12,830.860352
2010-02-13,810.400391
2010-02-14,846.330078
2010-02-15,800.419922
2010-02-16,810.400391
2010-02-17,810.400391
2010-02-18,815.889648
2010-02-19,815.889648
2010-02-20,795.429688
2010-02-21,841.339844
2010-02-22,810.400391
2010-02-23,815.889648
2010-02-24,779.959961
2010-02-25,800.419922
2010-02-26,810.400391
2010-02-27,856.80957
2010-02-28,820.879883
2010-03-01,825.870117
2010-03-02,769.480469
2010-03-03,810.400391
2010-03-04,815.889648
2010-03-05,810.400391
2010-03-06,805.410156
2010-03-07,810.400391
2010-03-08,800.419922
2010-03-09,820.879883
2010-03-10,805.410156
2010-03-11,805.410156
2010-03-12,810.400391
2010-03-13,830.860352
2010-03-14,789.94043
2010-03-15,805.410156
2010-03-16,810.400391
2010-03-17,805.410156
2010-03-18,810.400391
2010-03-19,795.429688
2010-03-20,820.879883
2010-03-21,820.879883
2010-03-22,815.889648
2010-03-23,805.410156
2010-03-24,815.889648
2010-03-25,810.400391
2010-03-26,815.889648
2010-03-27,866.790039
2010-03-28,830.860352
2010-03-29,815.889648
2010-03-30,815.889648
2010-03-31,820.879883
2010-04-01,805.410156
2010-04-02,820.879883
2010-04-03,856.80957
2010-04-04,815.889648
2010-04-05,846.330078
2010-04-06,805.410156
2010-04-07,820.879883
2010-04-08,820.879883
2010-04-09,825.870117
2010-04-10,846.330078
2010-04-11,815.889648
2010-04-12,836.349609
2010-04-13,820.879883
2010-04-14,841.339844
2010-04-15,805.410156
2010-04-16,846.330078
2010-04-17,830.860352
2010-04-18,815.889648
2010-04-19,820.879883
2010-04-20,841.339844
2010-04-21,836.349609
2010-04-22,795.429688
2010-04-23,795.429688
2010-04-24,759.5
2010-04-25,841.339844
2010-04-26,764.490234
2010-04-27,789.94043
2010-04-28,851.320313
2010-04-29,815.889648
2010-04-30,769.480469
2010-05-01,851.320313
2010-05-02,810.400391
2010-05-03,810.400391
2010-05-04,795.429688
2010-05-05,810.400391
2010-05-06,830.860352
2010-05-07,805.410156
2010-05-08,795.429688
2010-05-09,846.330078
2010-05-10,800.419922
2010-05-11,856.80957
2010-05-12,815.889648
2010-05-13,764.490234
2010-05-14,800.419922
2010-05-15,846.330078
2010-05-16,820.879883
2010-05-17,820.879883
2010-05-18,825.870117
2010-05-19,830.860352
2010-05-20,810.400391
2010-05-21,825.870117
2010-05-22,877.269531
2010-05-23,861.799805
2010-05-24,815.889648
2010-05-25,754.509766
2010-05-26,789.94043
2010-05-27,871.780273
2010-05-28,912.700195
2010-05-29,759.5
2010-05-30,841.339844
2010-05-31,815.889648
2010-06-01,830.860352
2010-06-02,779.959961
2010-06-03,784.950195
2010-06-04,933.160156
2010-06-05,943.639648
2010-06-06,933.160156
2010-06-07,964.099609
2010-06-08,723.570313
2010-06-09,856.80957
2010-06-10,805.410156
2010-06-11,800.419922
2010-06-12,677.660156
2010-06-13,657.200195
2010-06-14,739.040039
2010-06-15,789.94043
2010-06-16,846.330078
2010-06-17,784.950195
2010-06-18,836.349609
2010-06-19,861.799805
2010-06-20,861.799805
2010-06-21,856.80957
2010-06-22,764.490234
2010-06-23,789.94043
2010-06-24,784.950195
2010-06-25,784.950195
2010-06-26,805.410156
2010-06-27,789.94043
2010-06-28,795.429688
2010-06-29,779.959961
2010-06-30,744.030273
2010-07-01,810.400391
2010-07-02,815.889648
2010-07-03,769.480469
2010-07-04,800.419922
2010-07-05,789.94043
2010-07-06,744.030273
2010-07-07,749.519531
2010-07-08,744.030273
2010-07-09,739.040039
2010-07-10,800.419922
2010-07-11,779.959961
2010-07-12,795.429688
2010-07-13,779.959961
2010-07-14,764.490234
2010-07-15,810.400391
2010-07-16,749.519531
2010-07-17,779.959961
2010-07-18,795.429688
2010-07-19,784.950195
2010-07-20,800.419922
2010-07-21,805.410156
2010-07-22,815.889648
2010-07-23,800.419922
2010-07-24,779.959961
2010-07-25,784.950195
2010-07-26,779.959961
2010-07-27,784.950195
2010-07-28,800.419922
2010-07-29,810.400391
2010-07-30,820.879883
2010-07-31,795.429688
2010-08-01,841.339844
2010-08-02,820.879883
2010-08-03,846.330078
2010-08-04,836.349609
2010-08-05,830.860352
2010-08-06,830.860352
2010-08-07,810.400391
2010-08-08,795.429688
2010-08-09,810.400391
2010-08-10,820.879883
2010-08-11,795.429688
2010-08-12,784.950195
2010-08-13,764.490234
2010-08-14,739.040039
2010-08-15,713.589844
2010-08-16,703.110352
2010-08-17,698.120117
2010-08-18,688.139648
2010-08-19,713.589844
2010-08-20,734.049805
2010-08-21,744.030273
2010-08-22,749.519531
2010-08-23,754.509766
2010-08-24,754.509766
2010-08-25,754.509766
2010-08-26,744.030273
2010-08-27,734.049805
2010-08-28,723.570313
2010-08-29,713.589844
2010-08-30,703.110352
2010-08-31,688.139648
2010-09-01,677.660156
2010-09-02,667.679688
2010-09-03,657.200195
2010-09-04,647.219727
2010-09-05,626.759766
2010-09-06,688.139648
2010-09-07,693.129883
2010-09-08,769.480469
2010-09-09,800.419922
2010-09-10,759.5
2010-09-11,779.959961
2010-09-12,789.94043
2010-09-13,779.959961
2010-09-14,769.480469
2010-09-15,769.480469
2010-09-16,764.490234
2010-09-17,754.509766
2010-09-18,769.480469
2010-09-19,784.950195
2010-09-20,784.950195
2010-09-21,779.959961
2010-09-22,789.94043
2010-09-23,774.969727
2010-09-24,784.950195
2010-09-25,784.950195
2010-09-26,795.429688
2010-09-27,769.480469
2010-09-28,682.650391
2010-09-29,662.19043
2010-09-30,636.740234
2010-10-01,621.769531
2010-10-02,611.290039
2010-10-03,606.299805
2010-10-04,616.280273
2010-10-05,636.740234
2010-10-06,647.219727
2010-10-07,667.679688
2010-10-08,662.19043
2010-10-09,662.19043
2010-10-10,672.669922
2010-10-11,657.200195
2010-10-12,657.200195
2010-10-13,647.219727
2010-10-14,652.209961
2010-10-15,657.200195
2010-10-16,662.19043
2010-10-17,662.19043
2010-10-18,667.679688
2010-10-19,647.219727
2010-10-20,652.209961
2010-10-21,657.200195
2010-10-22,667.679688
2010-10-23,631.75
2010-10-24,657.200195
2010-10-25,636.740234
2010-10-26,652.209961
2010-10-27,662.19043
2010-10-28,662.19043
2010-10-29,657.200195
2010-10-30,662.19043
2010-10-31,641.730469
2010-11-01,662.19043
2010-11-02,652.209961
2010-11-03,652.209961
2010-11-04,641.730469
2010-11-05,652.209961
2010-11-06,672.669922
2010-11-07,693.129883
2010-11-08,708.599609
2010-11-09,734.049805
2010-11-10,764.490234
2010-11-11,836.349609
2010-11-12,846.330078
2010-11-13,841.339844
2010-11-14,836.349609
2010-11-15,815.889648
2010-11-16,805.410156
2010-11-17,779.959961
2010-11-18,851.320313
2010-11-19,846.330078
2010-11-20,830.860352
2010-11-21,841.339844
2010-11-22,856.80957
2010-11-23,830.860352
2010-11-24,784.950195
2010-11-25,769.480469
2010-11-26,805.410156
2010-11-27,877.269531
2010-11-28,825.870117
2010-11-29,795.429688
2010-11-30,830.860352
2010-12-01,810.400391
2010-12-02,815.889648
2010-12-03,815.889648
2010-12-04,820.879883
2010-12-05,820.879883
2010-12-06,830.860352
2010-12-07,836.349609
2010-12-08,836.349609
2010-12-09,841.339844
2010-12-10,851.320313
2010-12-11,856.80957
2010-12-12,856.80957
2010-12-13,856.80957
2010-12-14,861.799805
2010-12-15,866.790039
2010-12-16,866.790039
2010-12-17,846.330078
2010-12-18,825.870117
2010-12-19,815.889648
2010-12-20,805.410156
2010-12-21,805.410156
2010-12-22,800.419922
2010-12-23,789.94043
2010-12-24,795.429688
2010-12-25,795.429688
2010-12-26,795.429688
2010-12-27,800.419922
2010-12-28,805.410156
2010-12-29,805.410156
2010-12-30,795.429688
2010-12-31,789.94043
2011-01-01,795.429688
2011-01-02,841.339844
2011-01-03,851.320313
2011-01-04,795.429688
2011-01-05,810.400391
2011-01-06,795.429688
2011-01-07,795.429688
2011-01-08,800.419922
2011-01-09,789.94043
2011-01-10,800.419922
2011-01-11,795.429688
2011-01-12,830.860352
2011-01-13,830.860352
2011-01-14,836.349609
2011-01-15,820.879883
2011-01-16,805.410156
2011-01-17,800.419922
2011-01-18,815.889648
2011-01-19,805.410156
2011-01-20,800.419922
2011-01-21,795.429688
2011-01-22,805.410156
2011-01-23,795.429688
2011-01-24,795.429688
2011-01-25,795.429688
2011-01-26,795.429688
2011-01-27,795.429688
2011-01-28,800.419922
2011-01-29,789.94043
2011-01-30,800.419922
2011-01-31,800.419922
2011-02-01,795.429688
2011-02-02,795.429688
2011-02-03,800.419922
2011-02-04,795.429688
2011-02-05,805.410156
2011-02-06,800.419922
2011-02-07,810.400391
2011-02-08,784.950195
2011-02-09,784.950195
2011-02-10,795.429688
2011-02-11,789.94043
2011-02-12,779.959961
2011-02-13,784.950195
2011-02-14,789.94043
2011-02-15,784.950195
2011-02-16,784.950195
2011-02-17,795.429688
2011-02-18,800.419922
2011-02-19,779.959961
2011-02-20,769.480469
2011-02-21,795.429688
2011-02-22,795.429688
2011-02-23,789.94043
2011-02-24,795.429688
2011-02-25,795.429688
2011-02-26,789.94043
2011-02-27,800.419922
2011-02-28,789.94043
2011-03-01,784.950195
2011-03-02,784.950195
2011-03-03,784.950195
2011-03-04,789.94043
2011-03-05,800.419922
2011-03-06,800.419922
2011-03-07,795.429688
2011-03-08,800.419922
2011-03-09,789.94043
2011-03-10,774.969727
2011-03-11,789.94043
2011-03-12,784.950195
2011-03-13,784.950195
2011-03-14,784.950195
2011-03-15,795.429688
2011-03-16,784.950195
2011-03-17,800.419922
2011-03-18,784.950195
2011-03-19,789.94043
2011-03-20,800.419922
2011-03-21,805.410156
2011-03-22,779.959961
2011-03-23,789.94043
2011-03-24,789.94043
2011-03-25,789.94043
2011-03-26,789.94043
2011-03-27,789.94043
2011-03-28,784.950195
2011-03-29,789.94043
2011-03-30,805.410156
2011-03-31,784.950195
2011-04-01,800.419922
2011-04-02,836.349609
2011-04-03,815.889648
2011-04-04,825.870117
2011-04-05,820.879883
2011-04-06,825.870117
2011-04-07,769.480469
2011-04-08,830.860352
2011-04-09,846.330078
2011-04-10,815.889648
2011-04-11,810.400391
2011-04-12,789.94043
2011-04-13,800.419922
2011-04-14,800.419922
2011-04-15,795.429688
2011-04-16,795.429688
2011-04-17,800.419922
2011-04-18,800.419922
2011-04-19,795.429688
2011-04-20,805.410156
2011-04-21,825.870117
2011-04-22,784.950195
2011-04-23,820.879883
2011-04-24,810.400391
2011-04-25,810.400391
2011-04-26,769.480469
2011-04-27,784.950195
2011-04-28,769.480469
2011-04-29,800.419922
2011-04-30,784.950195
2011-05-01,789.94043
2011-05-02,774.969727
2011-05-03,789.94043
2011-05-04,784.950195
2011-05-05,774.969727
2011-05-06,800.419922
2011-05-07,820.879883
2011-05-08,815.889648
2011-05-09,810.400391
2011-05-10,784.950195
2011-05-11,769.480469
2011-05-12,769.480469
2011-05-13,769.480469
2011-05-14,810.400391
2011-05-15,795.429688
2011-05-16,836.349609
2011-05-17,759.5
2011-05-18,718.580078
2011-05-19,718.580078
2011-05-20,677.660156
2011-05-21,698.120117
2011-05-22,631.75
2011-05-23,698.120117
2011-05-24,708.599609
2011-05-25,677.660156
2011-05-26,641.730469
2011-05-27,708.599609
2011-05-28,729.05957
2011-05-29,688.139648
2011-05-30,647.219727
2011-05-31,657.200195
2011-06-01,652.209961
2011-06-02,677.660156
2011-06-03,647.219727
2011-06-04,667.679688
2011-06-05,693.129883
2011-06-06,698.120117
2011-06-07,693.129883
2011-06-08,652.209961
2011-06-09,647.219727
2011-06-10,698.120117
2011-06-11,718.580078
2011-06-12,744.030273
2011-06-13,708.599609
2011-06-14,774.969727
2011-06-15,734.049805
2011-06-16,749.519531
2011-06-17,667.679688
2011-06-18,708.599609
2011-06-19,693.129883
2011-06-20,713.589844
2011-06-21,677.660156
2011-06-22,703.110352
2011-06-23,713.589844
2011-06-24,789.94043
2011-06-25,810.400391
2011-06-26,779.959961
2011-06-27,754.509766
2011-06-28,703.110352
2011-06-29,759.5
2011-06-30,764.490234
2011-07-01,774.969727
2011-07-02,774.969727
2011-07-03,682.650391
2011-07-04,682.650391
2011-07-05,626.759766
2011-07-06,703.110352
2011-07-07,754.509766
2011-07-08,729.05957
2011-07-09,759.5
2011-07-10,734.049805
2011-07-11,734.049805
2011-07-12,682.650391
2011-07-13,688.139648
2011-07-14,693.129883
2011-07-15,667.679688
2011-07-16,662.19043
2011-07-17,657.200195
2011-07-18,784.950195
2011-07-19,764.490234
2011-07-20,698.120117
2011-07-21,626.759766
2011-07-22,636.740234
2011-07-23,677.660156
2011-07-24,744.030273
2011-07-25,764.490234
2011-07-26,744.030273
2011-07-27,729.05957
2011-07-28,729.05957
2011-07-29,729.05957
2011-07-30,769.480469
2011-07-31,784.950195
2011-08-01,774.969727
2011-08-02,729.05957
2011-08-03,754.509766
2011-08-04,749.519531
2011-08-05,754.509766
2011-08-06,729.05957
2011-08-07,723.570313
2011-08-08,734.049805
2011-08-09,744.030273
2011-08-10,744.030273
2011-08-11,734.049805
2011-08-12,734.049805
2011-08-13,729.05957
2011-08-14,729.05957
2011-08-15,729.05957
2011-08-16,718.580078
2011-08-17,713.589844
2011-08-18,708.599609
2011-08-19,729.05957
2011-08-20,759.5
2011-08-21,774.969727
2011-08-22,795.429688
2011-08-23,784.950195
2011-08-24,774.969727
2011-08-25,759.5
2011-08-26,764.490234
2011-08-27,754.509766
2011-08-28,749.519531
2011-08-29,789.94043
2011-08-30,789.94043
2011-08-31,784.950195
2011-09-01,784.950195
2011-09-02,789.94043
2011-09-03,784.950195
2011-09-04,779.959961
2011-09-05,769.480469
2011-09-06,784.950195
2011-09-07,759.5
2011-09-08,744.030273
2011-09-09,713.589844
2011-09-10,672.669922
2011-09-11,693.129883
2011-09-12,723.570313
2011-09-13,744.030273
2011-09-14,774.969727
2011-09-15,815.889648
2011-09-16,830.860352
2011-09-17,846.330078
2011-09-18,764.490234
2011-09-19,769.480469
2011-09-20,734.049805
2011-09-21,779.959961
2011-09-22,795.429688
2011-09-23,764.490234
2011-09-24,820.879883
2011-09-25,779.959961
2011-09-26,779.959961
2011-09-27,779.959961
2011-09-28,789.94043
2011-09-29,789.94043
2011-09-30,784.950195
2011-10-01,789.94043
2011-10-02,784.950195
2011-10-03,784.950195
2011-10-04,784.950195
2011-10-05,774.969727
2011-10-06,784.950195
2011-10-07,779.959961
2011-10-08,805.410156
2011-10-09,795.429688
2011-10-10,784.950195
2011-10-11,800.419922
2011-10-12,800.419922
2011-10-13,784.950195
2011-10-14,784.950195
2011-10-15,784.950195
2011-10-16,784.950195
2011-10-17,
2011-10-18,
2011-10-19,
2011-10-20,
2011-10-21,
2011-10-22,
2011-10-23,
2011-10-24,
2011-10-25,
2011-10-26,
2011-10-27,
2011-10-28,
2011-10-29,
2011-10-30,
2011-10-31,
2011-11-01,
2011-11-02,
2011-11-03,
2011-11-04,
2011-11-05,
2011-11-06,
2011-11-07,
2011-11-08,
2011-11-09,
2011-11-10,
2011-11-11,
2011-11-12,
2011-11-13,
2011-11-14,
2011-11-15,
2011-11-16,
2011-11-17,
2011-11-18,
2011-11-19,
2011-11-20,
2011-11-21,
2011-11-22,759.5
2011-11-23,734.049805
2011-11-24,836.349609
2011-11-25,841.339844
2011-11-26,836.349609
2011-11-27,836.349609
2011-11-28,836.349609
2011-11-29,836.349609
2011-11-30,830.860352
2011-12-01,830.860352
2011-12-02,830.860352
2011-12-03,825.870117
2011-12-04,820.879883
2011-12-05,820.879883
2011-12-06,810.400391
2011-12-07,805.410156
2011-12-08,800.419922
2011-12-09,795.429688
2011-12-10,789.94043
2011-12-11,784.950195
2011-12-12,779.959961
2011-12-13,774.969727
2011-12-14,764.490234
2011-12-15,779.959961
2011-12-16,774.969727
2011-12-17,795.429688
2011-12-18,789.94043
2011-12-19,784.950195
2011-12-20,779.959961
2011-12-21,774.969727
2011-12-22,784.950195
2011-12-23,784.950195
2011-12-24,779.959961
2011-12-25,774.969727
2011-12-26,784.950195
2011-12-27,800.419922
2011-12-28,784.950195
2011-12-29,795.429688
2011-12-30,764.490234
2011-12-31,769.480469
2012-01-01,785.05
2012-01-02,779.94
2012-01-03,774.83
2012-01-04,795.27
2012-01-05,810.6
2012-01-06,800.38
2012-01-07,810.6
2012-01-08,785.05
2012-01-09,769.72
2012-01-10,774.83
2012-01-11,764.61
2012-01-12,785.05
2012-01-13,769.72
2012-01-14,764.61
2012-01-15,764.61
2012-01-16,764.61
2012-01-17,785.05
2012-01-18,764.61
2012-01-19,764.61
2012-01-20,795.27
2012-01-21,779.94
2012-01-22,779.94
2012-01-23,785.05
2012-01-24,774.83
2012-01-25,774.83
2012-01-26,785.05
2012-01-27,774.83